Home > Weather > St. George > Past weeks

Flag for U.S.A. Weather for the Past 2 Weeks in St. George, Utah, U.S.A.

Now
37 °F

Clear.


Feels Like: 37 °F
Forecast: 34 / 64 °F
Wind: No wind

Location: Saint George

Current Time: Feb 10, 2016 at 4:44:29 AM

Latest Report: Feb 10, 2016 at 4:15 AM


Visibility: 10 mi

Pressure: 30.38 "Hg (27.37 "Hg at 842m altitude)

Humidity: 60%

Dew point: 25 °F

Location of St. GeorgeLocation

Historic Weather in St. George — Graph

°F

St. George Temperature Yesterday

Maximum temperature yesterday: 64 °F (at 4:35 PM)
Minimum temperature yesterday: 34 °F (at 7:15 AM)
Average temperature yesterday: 48 °F

High & Low Weather Summary for the Past Weeks

 TemperatureHumidityPressure
High64 °F (Feb 8, 5:35 PM)87% (Jan 31, 8:15 PM)30.57 "Hg (Jan 31, 8:15 PM)
Low23 °F (Feb 3, 6:35 AM)23% (Feb 7, 4:55 PM)29.42 "Hg (Feb 1, 12:55 AM)
Average40 °F50%30.27 "Hg
* Reported Jan 26 3:35 AM — Feb 10 3:35 AM, St. George, Weather by CustomWeather, © 2016

Note: Actual official high and low records may vary slightly from our data, if they occured in-between our weather recording intervals... More about our weather records

Advertising

St. George Weather History for the Previous 24 Hours

 ConditionsComfort  
Time TempWeatherWind HumidityBarometerVisibility
3:35 AM
Wed, Feb 10
39 °FClear.No wind56%30.38 "Hg10 mi
3:15 AM39 °FClear.3 mph56%30.38 "Hg10 mi
2:55 AM39 °FClear.No wind56%30.37 "Hg10 mi
2:35 AM43 °FClear.7 mph49%30.38 "Hg10 mi
2:15 AM43 °FClear.7 mph49%30.37 "Hg10 mi
1:55 AM41 °FClear.5 mph53%30.38 "Hg10 mi
1:35 AM43 °FClear.8 mph49%30.38 "Hg10 mi
1:15 AM43 °FClear.6 mph49%30.38 "Hg10 mi
12:55 AM39 °FClear.3 mph56%30.39 "Hg10 mi
12:35 AM43 °FClear.7 mph49%30.39 "Hg10 mi
12:15 AM46 °FClear.No wind43%30.39 "Hg10 mi
11:55 PM
Tue, Feb 9
45 °FClear.3 mph46%30.39 "Hg10 mi
11:35 PM45 °FClear.5 mph46%30.38 "Hg10 mi
11:15 PM45 °FClear.5 mph46%30.38 "Hg10 mi
10:55 PM48 °FClear.No wind40%30.37 "Hg10 mi
10:15 PM52 °FClear.8 mph35%30.36 "Hg10 mi
9:55 PM52 °FClear.8 mph38%30.36 "Hg10 mi
9:35 PM52 °FClear.8 mph38%30.36 "Hg10 mi
9:15 PM52 °FClear.8 mph38%30.37 "Hg10 mi
8:55 PM50 °FClear.No wind40%30.36 "Hg10 mi
8:35 PM52 °FClear.No wind38%30.36 "Hg10 mi
7:55 PM52 °FClear.No wind38%30.36 "Hg10 mi
7:35 PM54 °FClear.No wind35%30.35 "Hg10 mi
7:15 PM54 °FClear.7 mph35%30.35 "Hg10 mi
6:35 PM59 °FClear.No wind31%30.33 "Hg10 mi
5:35 PM63 °FSunny.5 mph27%30.34 "Hg10 mi
5:15 PM63 °FSunny.3 mph27%30.34 "Hg10 mi
4:35 PM64 °FSunny.3 mph26%30.34 "Hg10 mi
3:55 PM63 °FSunny.No wind27%30.34 "Hg10 mi
3:15 PM63 °FSunny.No wind27%30.35 "Hg10 mi
2:35 PM61 °FSunny.3 mph29%30.36 "Hg10 mi
1:55 PM57 °FSunny.No wind33%30.38 "Hg10 mi
1:35 PM57 °FSunny.No wind33%30.39 "Hg10 mi
1:15 PM55 °FSunny.No wind36%30.40 "Hg10 mi
12:55 PM55 °FSunny.3 mph33%30.42 "Hg10 mi
12:35 PM54 °FSunny.No wind38%30.44 "Hg10 mi
12:15 PM52 °FSunny.No wind38%30.45 "Hg10 mi
11:55 AM52 °FSunny.3 mph38%30.46 "Hg10 mi
11:35 AM50 °FSunny.5 mph40%30.47 "Hg10 mi
11:15 AM48 °FSunny.5 mph43%30.48 "Hg10 mi
10:55 AM46 °FSunny.No wind46%30.49 "Hg10 mi
10:35 AM45 °FSunny.No wind49%30.49 "Hg10 mi
10:15 AM43 °FSunny.3 mph53%30.50 "Hg10 mi
9:55 AM43 °FSunny.No wind53%30.50 "Hg10 mi
8:55 AM37 °FSunny.No wind60%30.49 "Hg10 mi
8:35 AM37 °FSunny.No wind60%30.49 "Hg10 mi
8:15 AM36 °FSunny.No wind60%30.49 "Hg10 mi
7:35 AM36 °FSunny.8 mph56%30.48 "Hg10 mi
7:15 AM34 °FClear.7 mph65%30.48 "Hg10 mi
6:35 AM36 °FClear.3 mph60%30.48 "Hg10 mi
6:15 AM36 °FClear.3 mph60%30.47 "Hg10 mi
5:55 AM36 °FClear.3 mph60%30.48 "Hg10 mi
5:15 AM37 °FClear.3 mph56%30.47 "Hg10 mi
4:35 AM37 °FClear.No wind56%30.47 "Hg10 mi
Weather by CustomWeather, © 2016

See weather overviewHow to use our weather pages